This is the latest recevied weather packets stored in our database for station/object WA7CUG. If no packets are shown the sender has not sent any weather packets the latest 10 day(s).
| Time | Temp. | Humidity | Pressure | Rain* | Wind** | Luminosity | Snow |
|---|---|---|---|---|---|---|---|
| 1777682422 | 25° C | 32% | 1014.8 hPa | 0 mm | - | 179 W/m² | - |
| 1777682120 | 25° C | 34% | 1014.7 hPa | 0 mm | - | 164 W/m² | - |
| 1777681816 | 25.56° C | 29% | 1014.9 hPa | 0 mm | - | 177 W/m² | - |
| 1777681513 | 25.56° C | 37% | 1015 hPa | 0 mm | - | 161 W/m² | - |
| 1777681210 | 25.56° C | 30% | 1015 hPa | 0 mm | - | 155 W/m² | - |
| 1777680908 | 25.56° C | 33% | 1015.3 hPa | 0 mm | - | 170 W/m² | - |
| 1777680605 | 25.56° C | 29% | 1015.2 hPa | 0 mm | - | 302 W/m² | - |
| 1777680303 | 26.11° C | 31% | 1015 hPa | 0 mm | - | 259 W/m² | - |
| 1777679999 | 26.67° C | 28% | 1015 hPa | 0 mm | - | 315 W/m² | - |
| 1777679695 | 26.11° C | 44% | 1015 hPa | 0 mm | - | 310 W/m² | - |
| 1777679390 | 25.56° C | 38% | 1014.8 hPa | 0 mm | - | 250 W/m² | - |
| 1777679087 | 25.56° C | 38% | 1015 hPa | 0 mm | - | 223 W/m² | - |
| 1777678786 | 25° C | 37% | 1015.2 hPa | 0 mm | - | 180 W/m² | - |
| 1777678483 | 25° C | 38% | 1015.2 hPa | 0 mm | - | 177 W/m² | - |
| 1777678179 | 25° C | 45% | 1015.2 hPa | 0 mm | - | 193 W/m² | - |
| 1777677876 | 25° C | 34% | 1015.3 hPa | 0 mm | - | 215 W/m² | - |
| 1777677573 | 23.89° C | 39% | 1015.3 hPa | 0 mm | - | 231 W/m² | - |
| 1777677272 | 25° C | 51% | 1015.3 hPa | 0 mm | - | 246 W/m² | - |
| 1777676969 | 24.44° C | 32% | 1015.4 hPa | 0 mm | - | 263 W/m² | - |
| 1777676668 | 25° C | 33% | 1015.4 hPa | 0 mm | - | 235 W/m² | - |
| 1777676365 | 25° C | 32% | 1015.4 hPa | 0 mm | - | 236 W/m² | - |
| 1777676063 | 25° C | 37% | 1015.4 hPa | 0 mm | - | 225 W/m² | - |
| 1777675758 | 25° C | 31% | 1015.9 hPa | 0 mm | - | 251 W/m² | - |
| 1777675456 | 24.44° C | 30% | 1015.5 hPa | 0 mm | - | 255 W/m² | - |
| 1777675153 | 25° C | 32% | 1015.6 hPa | 0 mm | - | 239 W/m² | - |
* Rain latest hour (hover to see other rain measurements)
** Current wind speed in m/s (hover to see current wind gust speed)